| time (UTC) | temp C | wind direction | speed KPH | gust KPH | rain 1hr cm | rain 24hr cm | rain mn cm | humidity % | barometer mb |
| 20260906121850 | 17 | 65 | 0.0 | 0.0 | 0.00 | 0.00 | 0.00 | 99 | 1022.6 |
| 20260906121345 | 17 | 61 | 0.0 | 0.0 | 0.00 | 0.00 | 0.00 | 99 | 1022.3 |
| 20260906120842 | 17 | 63 | 0.0 | 0.0 | 0.00 | 0.00 | 0.00 | 99 | 1022.5 |
| 20260906120337 | 17 | 65 | 0.0 | 0.0 | 0.00 | 0.00 | 0.00 | 99 | 1022.3 |
| 20260906115833 | 17 | 62 | 0.0 | 0.0 | 0.00 | 0.00 | 0.00 | 99 | 1022.5 |
| 20260906115328 | 17 | 62 | 0.0 | 0.0 | 0.00 | 0.00 | 0.00 | 99 | 1022.1 |
| 20260906114827 | 17 | 62 | 0.0 | 0.0 | 0.00 | 0.00 | 0.00 | 99 | 1022.2 |
| 20260906114323 | 17 | 62 | 0.0 | 0.0 | 0.00 | 0.00 | 0.00 | 99 | 1022.2 |
| 20260906113818 | 17 | 61 | 0.0 | 0.0 | 0.00 | 0.00 | 0.00 | 99 | 1022.1 |
| 20260906113317 | 17 | 61 | 0.0 | 0.0 | 0.00 | 0.00 | 0.00 | 99 | 1022.0 |
| 20260906112813 | 17 | 61 | 0.0 | 0.0 | 0.00 | 0.00 | 0.00 | 99 | 1022.0 |
| 20260906112309 | 17 | 61 | 0.0 | 0.0 | 0.00 | 0.00 | 0.00 | 99 | 1022.1 |
| 20260906111809 | 17 | 63 | 0.0 | 0.0 | 0.00 | 0.00 | 0.00 | 99 | 1021.9 |
| 20260906111308 | 17 | 62 | 0.0 | 0.0 | 0.00 | 0.00 | 0.00 | 99 | 1021.7 |
| 20260906110803 | 17 | 62 | 0.0 | 0.0 | 0.00 | 0.00 | 0.00 | 99 | 1021.9 |
| 20260906110259 | 17 | 60 | 0.0 | 0.0 | 0.00 | 0.00 | 0.00 | 99 | 1021.7 |
| 20260906105758 | 17 | 60 | 0.0 | 0.0 | 0.00 | 0.00 | 0.00 | 99 | 1021.5 |
| 20260906105253 | 17 | 60 | 0.0 | 0.0 | 0.00 | 0.00 | 0.00 | 99 | 1021.7 |
| 20260906104749 | 17 | 60 | 0.0 | 0.0 | 0.00 | 0.00 | 0.00 | 99 | 1021.7 |
| 20260906104248 | 17 | 62 | 0.0 | 0.0 | 0.00 | 0.00 | 0.00 | 99 | 1021.9 |
| 20260906103746 | 17 | 62 | 0.0 | 0.0 | 0.00 | 0.00 | 0.00 | 99 | 1021.4 |
| 20260906103246 | 17 | 60 | 0.0 | 0.0 | 0.00 | 0.00 | 0.00 | 99 | 1021.5 |
| 20260906102742 | 17 | 63 | 0.0 | 0.0 | 0.00 | 0.00 | 0.00 | 99 | 1021.3 |
| 20260906102240 | 17 | 60 | 0.0 | 0.0 | 0.00 | 0.00 | 0.00 | 99 | 1021.7 |
| 20260906101736 | 17 | 63 | 0.0 | 0.0 | 0.00 | 0.00 | 0.00 | 99 | 1021.5 |
| 20260906101230 | 17 | 63 | 0.0 | 0.0 | 0.00 | 0.00 | 0.00 | 99 | 1021.6 |
| 20260906100726 | 17 | 61 | 0.0 | 0.0 | 0.00 | 0.00 | 0.00 | 99 | 1021.3 |
| 20260906100226 | 17 | 61 | 0.0 | 0.0 | 0.00 | 0.00 | 0.00 | 99 | 1021.5 |
| 20260906095721 | 17 | 60 | 0.0 | 0.0 | 0.00 | 0.00 | 0.00 | 99 | 1021.6 |
| 20260906095216 | 17 | 60 | 0.0 | 0.0 | 0.00 | 0.00 | 0.00 | 99 | 1021.6 |
| 20260906094714 | 17 | 63 | 0.0 | 0.0 | 0.00 | 0.00 | 0.00 | 99 | 1021.5 |
| 20260906094210 | 17 | 63 | 0.0 | 0.0 | 0.00 | 0.00 | 0.00 | 99 | 1021.4 |
| 20260906093707 | 17 | 62 | 0.0 | 0.0 | 0.00 | 0.00 | 0.00 | 99 | 1021.4 |
| 20260906093202 | 17 | 62 | 0.0 | 0.0 | 0.00 | 0.00 | 0.00 | 99 | 1021.2 |
| 20260906092657 | 17 | 60 | 0.0 | 0.0 | 0.00 | 0.00 | 0.00 | 99 | 1021.1 |
| 20260906092156 | 17 | 61 | 0.0 | 0.0 | 0.00 | 0.00 | 0.00 | 99 | 1021.0 |
| 20260906091653 | 17 | 63 | 0.0 | 0.0 | 0.00 | 0.00 | 0.00 | 99 | 1021.3 |
| 20260906091149 | 17 | 63 | 0.0 | 0.0 | 0.00 | 0.00 | 0.00 | 99 | 1021.4 |
| 20260906090645 | 17 | 61 | 0.0 | 0.0 | 0.00 | 0.00 | 0.00 | 99 | 1021.3 |
| 20260906090144 | 17 | 60 | 0.0 | 0.0 | 0.00 | 0.00 | 0.00 | 99 | 1021.4 |
| 20260906085643 | 17 | 60 | 0.0 | 0.0 | 0.00 | 0.00 | 0.00 | 99 | 1021.0 |
| 20260906085137 | 17 | 62 | 0.0 | 0.0 | 0.00 | 0.00 | 0.00 | 99 | 1021.3 |
| 20260906084632 | 17 | 61 | 0.0 | 0.0 | 0.00 | 0.00 | 0.00 | 99 | 1021.3 |
| 20260906084131 | 17 | 61 | 0.0 | 0.0 | 0.00 | 0.00 | 0.00 | 99 | 1021.3 |
| 20260906083626 | 17 | 61 | 0.0 | 0.0 | 0.00 | 0.00 | 0.00 | 99 | 1021.3 |
| 20260906083121 | 17 | 62 | 0.0 | 0.0 | 0.00 | 0.00 | 0.00 | 99 | 1021.2 |
| 20260906082616 | 17 | 62 | 0.0 | 0.0 | 0.00 | 0.00 | 0.00 | 99 | 1021.2 |
| 20260906082112 | 17 | 61 | 0.0 | 0.0 | 0.00 | 0.00 | 0.00 | 99 | 1021.0 |
| 20260906081608 | 17 | 61 | 0.0 | 0.0 | 0.00 | 0.00 | 0.00 | 99 | 1021.1 |
| 20260906081103 | 17 | 60 | 0.0 | 0.0 | 0.00 | 0.00 | 0.00 | 99 | 1021.3 |
| 20260906080559 | 17 | 60 | 0.0 | 0.0 | 0.00 | 0.00 | 0.00 | 99 | 1021.2 |
| 20260906080055 | 17 | 60 | 0.0 | 0.0 | 0.00 | 0.00 | 0.00 | 99 | 1021.2 |
| 20260906075549 | 17 | 60 | 0.0 | 0.0 | 0.00 | 0.00 | 0.00 | 99 | 1021.2 |
| 20260906075044 | 17 | 60 | 0.0 | 0.0 | 0.00 | 0.00 | 0.00 | 99 | 1021.2 |
| 20260906074539 | 17 | 60 | 0.0 | 0.0 | 0.00 | 0.00 | 0.00 | 99 | 1021.3 |
| 20260906074037 | 17 | 60 | 0.0 | 0.0 | 0.00 | 0.00 | 0.00 | 99 | 1021.2 |
| 20260906073532 | 17 | 60 | 0.0 | 0.0 | 0.00 | 0.00 | 0.00 | 99 | 1021.6 |
| 20260906073029 | 17 | 64 | 0.0 | 0.0 | 0.00 | 0.00 | 0.00 | 99 | 1021.2 |
| 20260906072523 | 17 | 63 | 0.0 | 0.0 | 0.00 | 0.00 | 0.00 | 99 | 1021.1 |
| 20260906072020 | 17 | 63 | 0.0 | 0.0 | 0.00 | 0.00 | 0.00 | 99 | 1021.2 |
| 20260906071515 | 17 | 63 | 0.0 | 0.0 | 0.00 | 0.00 | 0.00 | 99 | 1021.1 |
| 20260906071010 | 17 | 63 | 0.0 | 0.0 | 0.00 | 0.00 | 0.00 | 99 | 1021.2 |
| 20260906070507 | 17 | 63 | 0.0 | 0.0 | 0.00 | 0.00 | 0.00 | 99 | 1021.2 |
| 20260906070002 | 17 | 63 | 0.0 | 0.0 | 0.00 | 0.00 | 0.00 | 99 | 1021.3 |
| 20260906065502 | 17 | 63 | 0.0 | 0.0 | 0.00 | 0.00 | 0.00 | 99 | 1021.1 |
| 20260906064957 | 17 | 63 | 0.0 | 0.0 | 0.00 | 0.00 | 0.00 | 99 | 1021.1 |
| 20260906064453 | 17 | 62 | 0.0 | 0.0 | 0.00 | 0.00 | 0.00 | 99 | 1021.2 |
| 20260906063948 | 17 | 65 | 0.0 | 0.0 | 0.00 | 0.00 | 0.00 | 99 | 1021.4 |
| 20260906063444 | 17 | 63 | 0.0 | 0.0 | 0.00 | 0.00 | 0.00 | 99 | 1021.2 |
| 20260906062943 | 17 | 63 | 0.0 | 0.0 | 0.00 | 0.00 | 0.00 | 99 | 1021.4 |
| 20260906062439 | 17 | 63 | 0.0 | 0.0 | 0.00 | 0.00 | 0.00 | 99 | 1021.4 |
| 20260906061934 | 17 | 63 | 0.0 | 0.0 | 0.00 | 0.00 | 0.00 | 99 | 1021.3 |
| 20260906061429 | 17 | 63 | 0.0 | 0.0 | 0.00 | 0.00 | 0.00 | 99 | 1021.0 |
| 20260906060924 | 17 | 63 | 0.0 | 0.0 | 0.00 | 0.00 | 0.00 | 99 | 1021.2 |
| 20260906060421 | 17 | 62 | 0.0 | 0.0 | 0.00 | 0.00 | 0.00 | 99 | 1021.3 |
| 20260906055917 | 17 | 62 | 0.0 | 0.0 | 0.00 | 0.00 | 0.00 | 99 | 1021.2 |
| 20260906055413 | 17 | 62 | 0.0 | 0.0 | 0.00 | 0.00 | 0.00 | 99 | 1021.1 |
| 20260906054908 | 17 | 62 | 0.0 | 0.0 | 0.00 | 0.00 | 0.00 | 99 | 1021.2 |
| 20260906054403 | 17 | 66 | 0.0 | 0.0 | 0.00 | 0.00 | 0.00 | 99 | 1021.2 |
| 20260906053859 | 17 | 63 | 0.0 | 0.0 | 0.00 | 0.00 | 0.00 | 99 | 1021.2 |
| 20260906053354 | 17 | 62 | 0.0 | 0.0 | 0.00 | 0.00 | 0.00 | 99 | 1021.3 |
| 20260906052850 | 17 | 65 | 0.0 | 0.0 | 0.00 | 0.00 | 0.00 | 99 | 1021.1 |
| 20260906052346 | 17 | 63 | 0.0 | 0.0 | 0.00 | 0.00 | 0.00 | 99 | 1021.0 |
| 20260906051843 | 17 | 60 | 0.0 | 0.0 | 0.00 | 0.00 | 0.00 | 99 | 1021.2 |
| 20260906051342 | 17 | 63 | 0.0 | 0.0 | 0.00 | 0.00 | 0.00 | 99 | 1020.9 |
| 20260906050839 | 17 | 63 | 0.0 | 0.0 | 0.00 | 0.00 | 0.00 | 99 | 1021.1 |
| 20260906050333 | 17 | 62 | 0.0 | 0.0 | 0.00 | 0.00 | 0.00 | 99 | 1021.0 |
| 20260906045832 | 17 | 63 | 0.0 | 0.0 | 0.00 | 0.00 | 0.00 | 99 | 1021.0 |
| 20260906045326 | 17 | 63 | 0.0 | 0.0 | 0.00 | 0.00 | 0.00 | 99 | 1021.2 |
| 20260906044823 | 17 | 62 | 0.0 | 0.0 | 0.00 | 0.00 | 0.00 | 99 | 1021.0 |
| 20260906044317 | 17 | 62 | 0.0 | 0.0 | 0.00 | 0.00 | 0.00 | 99 | 1020.9 |
| 20260906043813 | 17 | 62 | 0.0 | 0.0 | 0.00 | 0.00 | 0.00 | 99 | 1020.9 |
| 20260906043309 | 17 | 61 | 0.0 | 0.0 | 0.00 | 0.00 | 0.00 | 99 | 1020.7 |
| 20260906042803 | 17 | 60 | 0.0 | 0.0 | 0.00 | 0.00 | 0.00 | 99 | 1020.9 |
| 20260906042306 | 17 | 60 | 0.0 | 0.0 | 0.00 | 0.00 | 0.00 | 99 | 1020.5 |
| 20260906041758 | 17 | 63 | 0.0 | 0.0 | 0.00 | 0.00 | 0.00 | 99 | 1020.6 |
| 20260906041253 | 17 | 63 | 0.0 | 0.0 | 0.00 | 0.00 | 0.00 | 99 | 1020.5 |
| 20260906040748 | 17 | 63 | 0.0 | 0.0 | 0.00 | 0.00 | 0.00 | 99 | 1020.5 |
| 20260906040243 | 18 | 63 | 0.0 | 0.0 | 0.00 | 0.00 | 0.00 | 99 | 1020.3 |
| 20260906035738 | 18 | 63 | 0.0 | 0.0 | 0.00 | 0.00 | 0.00 | 99 | 1020.4 |
| 20260906035234 | 18 | 63 | 0.0 | 0.0 | 0.00 | 0.00 | 0.00 | 99 | 1020.3 |
| 20260906034734 | 18 | 63 | 0.0 | 0.0 | 0.00 | 0.00 | 0.00 | 99 | 1020.7 |
| 20260906034229 | 18 | 56 | 0.0 | 0.0 | 0.00 | 0.00 | 0.00 | 99 | 1020.5 |
| 20260906033725 | 18 | 63 | 0.0 | 0.0 | 0.00 | 0.00 | 0.00 | 99 | 1020.6 |
| 20260906033224 | 18 | 59 | 0.0 | 0.0 | 0.00 | 0.00 | 0.00 | 99 | 1020.6 |
| 20260906032721 | 18 | 59 | 0.0 | 0.0 | 0.00 | 0.00 | 0.00 | 99 | 1020.4 |
| 20260906032221 | 18 | 59 | 0.0 | 0.0 | 0.00 | 0.00 | 0.00 | 99 | 1020.5 |
| 20260906031716 | 18 | 58 | 0.0 | 0.0 | 0.00 | 0.00 | 0.00 | 99 | 1020.4 |
| 20260906031212 | 18 | 47 | 0.0 | 0.0 | 0.00 | 0.00 | 0.00 | 99 | 1020.2 |
| 20260906030711 | 18 | 58 | 0.0 | 0.0 | 0.00 | 0.00 | 0.00 | 99 | 1020.3 |
| 20260906030206 | 18 | 59 | 0.0 | 0.0 | 0.00 | 0.00 | 0.00 | 99 | 1020.4 |
| 20260906025706 | 19 | 55 | 0.0 | 0.0 | 0.00 | 0.00 | 0.00 | 99 | 1020.3 |
| 20260906025200 | 19 | 50 | 0.0 | 0.0 | 0.00 | 0.00 | 0.00 | 99 | 1020.1 |
| 20260906024654 | 19 | 56 | 0.0 | 0.0 | 0.00 | 0.00 | 0.00 | 99 | 1020.3 |
| 20260906024153 | 19 | 57 | 0.0 | 0.0 | 0.00 | 0.00 | 0.00 | 99 | 1020.1 |
| 20260906023650 | 19 | 65 | 0.0 | 0.0 | 0.00 | 0.00 | 0.00 | 99 | 1020.2 |
| 20260906023149 | 19 | 61 | 0.0 | 0.0 | 0.00 | 0.00 | 0.00 | 99 | 1020.0 |
| 20260906022644 | 19 | 55 | 0.0 | 0.0 | 0.00 | 0.00 | 0.00 | 99 | 1019.9 |
| 20260906022140 | 19 | 62 | 0.0 | 0.0 | 0.00 | 0.00 | 0.00 | 99 | 1020.0 |
| 20260906021636 | 19 | 60 | 0.0 | 0.0 | 0.00 | 0.00 | 0.00 | 99 | 1019.9 |
| 20260906021135 | 19 | 60 | 0.0 | 0.0 | 0.00 | 0.00 | 0.00 | 99 | 1019.8 |
| 20260906020634 | 20 | 55 | 0.0 | 0.0 | 0.00 | 0.00 | 0.00 | 99 | 1019.8 |
| 20260906020130 | 20 | 49 | 0.0 | 0.0 | 0.00 | 0.00 | 0.00 | 99 | 1020.0 |
| 20260906015624 | 20 | 40 | 0.0 | 4.8 | 0.00 | 0.00 | 0.00 | 99 | 1020.1 |
| 20260906015122 | 20 | 47 | 0.0 | 0.0 | 0.00 | 0.00 | 0.00 | 99 | 1020.0 |
| 20260906014617 | 20 | 29 | 0.0 | 4.8 | 0.00 | 0.00 | 0.00 | 99 | 1019.8 |
| 20260906014114 | 20 | 23 | 0.0 | 4.8 | 0.00 | 0.00 | 0.00 | 99 | 1020.0 |
| 20260906013609 | 20 | 46 | 0.0 | 0.0 | 0.00 | 0.00 | 0.00 | 99 | 1020.0 |
| 20260906013104 | 20 | 55 | 0.0 | 0.0 | 0.00 | 0.00 | 0.00 | 99 | 1020.1 |
| 20260906012559 | 20 | 58 | 0.0 | 0.0 | 0.00 | 0.00 | 0.00 | 99 | 1020.0 |
| 20260906012058 | 20 | 55 | 0.0 | 0.0 | 0.00 | 0.00 | 0.00 | 99 | 1020.1 |
| 20260906011555 | 20 | 57 | 0.0 | 0.0 | 0.00 | 0.00 | 0.00 | 99 | 1020.2 |
| 20260906011049 | 20 | 50 | 0.0 | 0.0 | 0.00 | 0.00 | 0.00 | 99 | 1020.1 |
| 20260906010544 | 20 | 47 | 0.0 | 0.0 | 0.00 | 0.00 | 0.00 | 99 | 1020.2 |
| 20260906010041 | 20 | 54 | 0.0 | 4.8 | 0.00 | 0.00 | 0.00 | 99 | 1020.2 |
| 20260906005540 | 20 | 47 | 0.0 | 4.8 | 0.00 | 0.00 | 0.00 | 99 | 1020.1 |
| 20260906005039 | 20 | 15 | 0.0 | 4.8 | 0.00 | 0.00 | 0.00 | 99 | 1020.0 |
| 20260906004538 | 20 | 37 | 0.0 | 4.8 | 0.00 | 0.00 | 0.00 | 99 | 1020.1 |
| 20260906004033 | 20 | 35 | 0.0 | 4.8 | 0.00 | 0.00 | 0.00 | 99 | 1020.2 |
| 20260906003528 | 20 | 21 | 0.0 | 0.0 | 0.00 | 0.00 | 0.00 | 99 | 1019.8 |
| 20260906003025 | 21 | 55 | 0.0 | 0.0 | 0.00 | 0.00 | 0.00 | 99 | 1020.1 |
| 20260906002519 | 21 | 54 | 0.0 | 0.0 | 0.00 | 0.00 | 0.00 | 99 | 1020.1 |
| 20260906002014 | 21 | 54 | 0.0 | 0.0 | 0.00 | 0.00 | 0.00 | 98 | 1020.1 |
| 20260906001510 | 21 | 57 | 0.0 | 0.0 | 0.00 | 0.00 | 0.00 | 98 | 1019.8 |
| 20260906001004 | 21 | 55 | 0.0 | 0.0 | 0.00 | 0.00 | 0.00 | 98 | 1019.8 |
| 20260906000500 | 21 | 30 | 0.0 | 0.0 | 0.00 | 0.00 | 0.00 | 98 | 1019.7 |
| 20260906000000 | 21 | 45 | 0.0 | 9.7 | 0.00 | 0.00 | 0.00 | 97 | 1019.6 |
| 20260905235454 | 21 | 6 | 0.0 | 9.7 | 0.00 | 0.00 | 0.00 | 97 | 1019.4 |
| 20260905234949 | 21 | 31 | 1.6 | 9.7 | 0.00 | 0.00 | 0.00 | 97 | 1019.7 |
| 20260905234444 | 21 | 342 | 11.3 | 12.9 | 0.00 | 0.00 | 0.00 | 97 | 1019.6 |
| 20260905233938 | 21 | 358 | 8.0 | 9.7 | 0.00 | 0.00 | 0.00 | 97 | 1019.7 |
| 20260905233434 | 21 | 29 | 0.0 | 4.8 | 0.00 | 0.00 | 0.00 | 97 | 1019.8 |
| 20260905232933 | 22 | 3 | 4.8 | 9.7 | 0.00 | 0.00 | 0.00 | 97 | 1019.8 |
| 20260905232429 | 22 | 27 | 0.0 | 4.8 | 0.00 | 0.00 | 0.00 | 96 | 1019.9 |
| 20260905231924 | 22 | 358 | 3.2 | 9.7 | 0.00 | 0.00 | 0.00 | 95 | 1019.9 |
| 20260905231420 | 22 | 345 | 6.4 | 9.7 | 0.00 | 0.00 | 0.00 | 96 | 1019.8 |
| 20260905230917 | 22 | 35 | 0.0 | 9.7 | 0.00 | 0.00 | 0.00 | 96 | 1020.2 |
| 20260905230414 | 22 | 19 | 0.0 | 4.8 | 0.00 | 0.00 | 0.00 | 96 | 1019.8 |
| 20260905225907 | 22 | 349 | 4.8 | 12.9 | 0.00 | 0.00 | 0.00 | 95 | 1019.8 |
| 20260905225403 | 22 | 20 | 6.4 | 9.7 | 0.00 | 0.00 | 0.00 | 96 | 1019.6 |
| 20260905224858 | 22 | 11 | 11.3 | 12.9 | 0.00 | 0.00 | 0.00 | 95 | 1019.5 |
| 20260905224353 | 22 | 354 | 4.8 | 9.7 | 0.00 | 0.00 | 0.00 | 95 | 1019.6 |
| 20260905223848 | 23 | 4 | 9.7 | 12.9 | 0.00 | 0.00 | 0.00 | 94 | 1019.4 |
| 20260905223346 | 23 | 60 | 4.8 | 9.7 | 0.00 | 0.00 | 0.00 | 94 | 1019.6 |
| 20260905222840 | 23 | 8 | 4.8 | 12.9 | 0.00 | 0.00 | 0.00 | 93 | 1019.3 |
| 20260905222338 | 23 | 19 | 1.6 | 9.7 | 0.00 | 0.00 | 0.00 | 93 | 1019.3 |
| 20260905221835 | 23 | 38 | 4.8 | 9.7 | 0.00 | 0.00 | 0.00 | 92 | 1019.5 |
| 20260905221332 | 23 | 31 | 4.8 | 9.7 | 0.00 | 0.00 | 0.00 | 91 | 1019.2 |
| 20260905220827 | 23 | 357 | 3.2 | 4.8 | 0.00 | 0.00 | 0.00 | 91 | 1019.3 |
| 20260905220323 | 23 | 48 | 0.0 | 4.8 | 0.00 | 0.00 | 0.00 | 90 | 1019.2 |
| 20260905215822 | 23 | 16 | 1.6 | 9.7 | 0.00 | 0.00 | 0.00 | 90 | 1019.1 |
| 20260905215318 | 24 | 15 | 1.6 | 9.7 | 0.00 | 0.00 | 0.00 | 90 | 1018.9 |
| 20260905214815 | 24 | 43 | 1.6 | 9.7 | 0.00 | 0.00 | 0.00 | 90 | 1018.9 |
| 20260905214310 | 25 | 338 | 6.4 | 9.7 | 0.00 | 0.00 | 0.00 | 90 | 1019.0 |
| 20260905213804 | 25 | 346 | 6.4 | 12.9 | 0.00 | 0.00 | 0.00 | 89 | 1019.0 |
| 20260905213300 | 24 | 55 | 0.0 | 4.8 | 0.00 | 0.00 | 0.00 | 90 | 1018.8 |
| 20260905212755 | 24 | 31 | 3.2 | 9.7 | 0.00 | 0.00 | 0.00 | 91 | 1018.5 |
| 20260905212254 | 25 | 352 | 8.0 | 12.9 | 0.00 | 0.00 | 0.00 | 89 | 1018.7 |
| 20260905211749 | 25 | 34 | 0.0 | 9.7 | 0.00 | 0.00 | 0.00 | 90 | 1018.7 |
| 20260905211244 | 25 | 54 | 4.8 | 9.7 | 0.00 | 0.00 | 0.00 | 90 | 1018.7 |
| 20260905210742 | 25 | 20 | 1.6 | 4.8 | 0.00 | 0.00 | 0.00 | 91 | 1018.4 |
| 20260905210240 | 25 | 54 | 0.0 | 4.8 | 0.00 | 0.00 | 0.00 | 91 | 1018.9 |
| 20260905205739 | 25 | 350 | 6.4 | 12.9 | 0.00 | 0.00 | 0.00 | 90 | 1018.5 |
| 20260905205235 | 25 | 47 | 0.0 | 4.8 | 0.00 | 0.00 | 0.00 | 92 | 1018.6 |
| 20260905204734 | 25 | 35 | 0.0 | 4.8 | 0.00 | 0.00 | 0.00 | 92 | 1018.8 |
| 20260905204230 | 25 | 15 | 1.6 | 4.8 | 0.00 | 0.00 | 0.00 | 92 | 1018.6 |
| 20260905203729 | 25 | 21 | 0.0 | 4.8 | 0.00 | 0.00 | 0.00 | 90 | 1018.7 |
| 20260905203225 | 25 | 23 | 3.2 | 17.7 | 0.00 | 0.00 | 0.00 | 90 | 1018.6 |
| 20260905202720 | 25 | 50 | 0.0 | 9.7 | 0.00 | 0.00 | 0.00 | 93 | 1018.6 |
| 20260905202215 | 25 | 29 | 1.6 | 9.7 | 0.00 | 0.00 | 0.00 | 93 | 1018.5 |
| 20260905201710 | 25 | 356 | 8.0 | 12.9 | 0.00 | 0.00 | 0.00 | 91 | 1018.7 |
| 20260905201205 | 26 | 56 | 0.0 | 4.8 | 0.00 | 0.00 | 0.00 | 87 | 1018.5 |
| 20260905200700 | 26 | 44 | 0.0 | 0.0 | 0.00 | 0.00 | 0.00 | 86 | 1018.7 |
| 20260905200156 | 26 | 59 | 0.0 | 0.0 | 0.00 | 0.00 | 0.00 | 86 | 1018.7 |
| 20260905195654 | 27 | 47 | 4.8 | 9.7 | 0.00 | 0.00 | 0.00 | 85 | 1018.7 |
| 20260905195149 | 27 | 44 | 3.2 | 4.8 | 0.00 | 0.00 | 0.00 | 86 | 1019.0 |
| 20260905194644 | 26 | 94 | 0.0 | 4.8 | 0.00 | 0.00 | 0.00 | 85 | 1018.7 |
| 20260905194144 | 26 | 81 | 0.0 | 0.0 | 0.00 | 0.00 | 0.00 | 85 | 1018.7 |
| 20260905193638 | 26 | 61 | 0.0 | 4.8 | 0.00 | 0.00 | 0.00 | 85 | 1018.5 |
| 20260905193133 | 26 | 38 | 0.0 | 0.0 | 0.00 | 0.00 | 0.00 | 86 | 1018.7 |
| 20260905192628 | 26 | 58 | 0.0 | 0.0 | 0.00 | 0.00 | 0.00 | 84 | 1018.9 |
| 20260905192125 | 27 | 31 | 6.4 | 9.7 | 0.00 | 0.00 | 0.00 | 83 | 1018.6 |
| 20260905191624 | 27 | 79 | 0.0 | 0.0 | 0.00 | 0.00 | 0.00 | 83 | 1018.7 |
| 20260905191122 | 27 | 53 | 0.0 | 9.7 | 0.00 | 0.00 | 0.00 | 82 | 1019.1 |
| 20260905190621 | 26 | 65 | 0.0 | 4.8 | 0.00 | 0.00 | 0.00 | 86 | 1018.6 |
| 20260905190115 | 26 | 38 | 0.0 | 4.8 | 0.00 | 0.00 | 0.00 | 87 | 1018.7 |
| 20260905185614 | 26 | 65 | 0.0 | 0.0 | 0.00 | 0.00 | 0.00 | 88 | 1019.1 |
| 20260905185108 | 26 | 57 | 0.0 | 4.8 | 0.00 | 0.00 | 0.00 | 85 | 1019.0 |
| 20260905184603 | 27 | 3 | 4.8 | 4.8 | 0.00 | 0.00 | 0.00 | 86 | 1018.9 |
| 20260905184102 | 27 | 69 | 0.0 | 0.0 | 0.00 | 0.00 | 0.00 | 86 | 1018.8 |
| 20260905183601 | 26 | 103 | 0.0 | 0.0 | 0.00 | 0.00 | 0.00 | 87 | 1019.1 |
| 20260905183057 | 26 | 65 | 0.0 | 0.0 | 0.00 | 0.00 | 0.00 | 89 | 1018.9 |
| 20260905182556 | 26 | 63 | 0.0 | 0.0 | 0.00 | 0.00 | 0.00 | 90 | 1018.9 |
| 20260905182050 | 25 | 64 | 0.0 | 0.0 | 0.00 | 0.00 | 0.00 | 91 | 1019.2 |
| 20260905181545 | 25 | 69 | 0.0 | 0.0 | 0.00 | 0.00 | 0.00 | 92 | 1018.9 |
| 20260905181045 | 25 | 65 | 0.0 | 0.0 | 0.00 | 0.00 | 0.00 | 91 | 1019.2 |
| 20260905180545 | 25 | 63 | 0.0 | 0.0 | 0.00 | 0.00 | 0.00 | 92 | 1019.0 |
| 20260905180041 | 26 | 57 | 0.0 | 0.0 | 0.00 | 0.00 | 0.00 | 90 | 1019.1 |
| 20260905175539 | 25 | 57 | 0.0 | 0.0 | 0.00 | 0.00 | 0.00 | 91 | 1019.2 |
| 20260905175035 | 25 | 73 | 0.0 | 4.8 | 0.00 | 0.00 | 0.00 | 94 | 1019.0 |
| 20260905174531 | 25 | 64 | 0.0 | 0.0 | 0.00 | 0.00 | 0.00 | 95 | 1019.1 |
| 20260905174026 | 25 | 58 | 0.0 | 0.0 | 0.00 | 0.00 | 0.00 | 96 | 1019.3 |
| 20260905173523 | 24 | 62 | 0.0 | 0.0 | 0.00 | 0.00 | 0.00 | 95 | 1019.5 |
| 20260905173018 | 24 | 58 | 0.0 | 0.0 | 0.00 | 0.00 | 0.00 | 96 | 1019.3 |
| 20260905172516 | 24 | 38 | 0.0 | 0.0 | 0.00 | 0.00 | 0.00 | 96 | 1019.2 |
| 20260905172012 | 23 | 56 | 0.0 | 0.0 | 0.00 | 0.00 | 0.00 | 96 | 1019.3 |
| 20260905171508 | 24 | 58 | 0.0 | 0.0 | 0.00 | 0.00 | 0.00 | 96 | 1019.5 |
| 20260905171003 | 24 | 54 | 0.0 | 0.0 | 0.00 | 0.00 | 0.00 | 95 | 1019.2 |
| 20260905170500 | 24 | 58 | 0.0 | 0.0 | 0.00 | 0.00 | 0.00 | 95 | 1019.2 |
| 20260905165954 | 23 | 49 | 0.0 | 0.0 | 0.00 | 0.00 | 0.00 | 96 | 1019.6 |
| 20260905165449 | 23 | 61 | 0.0 | 0.0 | 0.00 | 0.00 | 0.00 | 96 | 1019.5 |
| 20260905164944 | 23 | 63 | 0.0 | 0.0 | 0.00 | 0.00 | 0.00 | 97 | 1019.7 |
| 20260905164438 | 23 | 58 | 0.0 | 0.0 | 0.00 | 0.00 | 0.00 | 97 | 1019.4 |
| 20260905163933 | 23 | 61 | 0.0 | 0.0 | 0.00 | 0.00 | 0.00 | 97 | 1019.7 |
| 20260905163430 | 23 | 56 | 0.0 | 0.0 | 0.00 | 0.00 | 0.00 | 97 | 1019.4 |
| 20260905162925 | 23 | 55 | 0.0 | 0.0 | 0.00 | 0.00 | 0.00 | 97 | 1019.4 |
| 20260905162420 | 23 | 57 | 0.0 | 0.0 | 0.00 | 0.00 | 0.00 | 97 | 1019.4 |
| 20260905161915 | 23 | 60 | 0.0 | 0.0 | 0.00 | 0.00 | 0.00 | 96 | 1019.4 |
| 20260905161414 | 23 | 52 | 0.0 | 0.0 | 0.00 | 0.00 | 0.00 | 97 | 1019.4 |
| 20260905160912 | 23 | 68 | 0.0 | 0.0 | 0.00 | 0.00 | 0.00 | 96 | 1019.2 |
| 20260905160406 | 23 | 50 | 0.0 | 0.0 | 0.00 | 0.00 | 0.00 | 97 | 1019.6 |
| 20260905155900 | 23 | 67 | 0.0 | 0.0 | 0.00 | 0.00 | 0.00 | 98 | 1019.4 |
| 20260905155355 | 23 | 66 | 0.0 | 0.0 | 0.00 | 0.00 | 0.00 | 98 | 1019.5 |
| 20260905154854 | 23 | 40 | 0.0 | 0.0 | 0.00 | 0.00 | 0.00 | 97 | 1019.4 |
| 20260905154349 | 23 | 58 | 0.0 | 0.0 | 0.00 | 0.00 | 0.00 | 98 | 1019.6 |
| 20260905153845 | 23 | 68 | 0.0 | 9.7 | 0.00 | 0.00 | 0.00 | 98 | 1019.4 |
| 20260905153342 | 23 | 59 | 0.0 | 4.8 | 0.00 | 0.00 | 0.00 | 99 | 1019.3 |
| 20260905152841 | 22 | 57 | 0.0 | 4.8 | 0.00 | 0.00 | 0.00 | 99 | 1019.3 |
| 20260905152340 | 22 | 53 | 0.0 | 0.0 | 0.00 | 0.00 | 0.00 | 99 | 1019.3 |
| 20260905151835 | 22 | 59 | 0.0 | 0.0 | 0.00 | 0.00 | 0.00 | 99 | 1019.2 |
| 20260905151331 | 22 | 56 | 0.0 | 0.0 | 0.00 | 0.00 | 0.00 | 99 | 1019.2 |
| 20260905150831 | 22 | 57 | 0.0 | 0.0 | 0.00 | 0.00 | 0.00 | 99 | 1019.2 |
| 20260905150326 | 22 | 55 | 0.0 | 0.0 | 0.00 | 0.00 | 0.00 | 99 | 1018.9 |
| 20260905145823 | 22 | 57 | 0.0 | 4.8 | 0.00 | 0.00 | 0.00 | 99 | 1018.8 |
| 20260905145322 | 22 | 47 | 0.0 | 4.8 | 0.00 | 0.00 | 0.00 | 99 | 1019.0 |
| 20260905144821 | 22 | 57 | 0.0 | 0.0 | 0.00 | 0.00 | 0.00 | 99 | 1018.8 |
| 20260905144317 | 22 | 39 | 1.6 | 4.8 | 0.00 | 0.00 | 0.00 | 99 | 1018.8 |
| 20260905143816 | 22 | 34 | 0.0 | 4.8 | 0.00 | 0.00 | 0.00 | 99 | 1018.9 |
| 20260905143310 | 22 | 52 | 0.0 | 0.0 | 0.00 | 0.00 | 0.00 | 99 | 1018.6 |
| 20260905142809 | 22 | 37 | 4.8 | 4.8 | 0.00 | 0.00 | 0.00 | 99 | 1018.6 |
| 20260905142306 | 22 | 35 | 0.0 | 9.7 | 0.00 | 0.00 | 0.00 | 99 | 1018.7 |
| 20260905141800 | 22 | 345 | 4.8 | 4.8 | 0.00 | 0.00 | 0.00 | 99 | 1018.4 |
| 20260905141255 | 22 | 359 | 8.0 | 9.7 | 0.00 | 0.00 | 0.00 | 99 | 1018.3 |
| 20260905140751 | 22 | 31 | 4.8 | 4.8 | 0.00 | 0.00 | 0.00 | 99 | 1018.4 |
| 20260905140250 | 22 | 45 | 0.0 | 0.0 | 0.00 | 0.00 | 0.00 | 99 | 1018.5 |
| 20260905135749 | 22 | 53 | 0.0 | 9.7 | 0.00 | 0.00 | 0.00 | 99 | 1018.3 |
| 20260905135245 | 22 | 13 | 1.6 | 4.8 | 0.00 | 0.00 | 0.00 | 99 | 1018.3 |
| 20260905134744 | 22 | 52 | 0.0 | 4.8 | 0.00 | 0.00 | 0.00 | 99 | 1018.2 |
| 20260905134239 | 22 | 51 | 0.0 | 0.0 | 0.00 | 0.00 | 0.00 | 99 | 1018.3 |
| 20260905133734 | 22 | 36 | 6.4 | 9.7 | 0.00 | 0.00 | 0.00 | 99 | 1018.7 |
| 20260905133229 | 22 | 46 | 0.0 | 0.0 | 0.00 | 0.00 | 0.00 | 99 | 1018.3 |
| 20260905132728 | 21 | 48 | 0.0 | 4.8 | 0.00 | 0.00 | 0.00 | 99 | 1018.4 |
| 20260905132224 | 21 | 43 | 0.0 | 4.8 | 0.00 | 0.00 | 0.00 | 99 | 1018.4 |
| 20260905131718 | 21 | 49 | 0.0 | 0.0 | 0.00 | 0.00 | 0.00 | 99 | 1018.5 |
| 20260905131214 | 21 | 58 | 0.0 | 0.0 | 0.00 | 0.00 | 0.00 | 99 | 1018.4 |
| 20260905130708 | 21 | 60 | 0.0 | 0.0 | 0.00 | 0.00 | 0.00 | 99 | 1019.0 |
| 20260905130208 | 21 | 64 | 0.0 | 0.0 | 0.00 | 0.00 | 0.00 | 99 | 1018.8 |
| 20260905125702 | 21 | 64 | 0.0 | 0.0 | 0.00 | 0.00 | 0.00 | 99 | 1018.6 |
| 20260905125158 | 21 | 62 | 0.0 | 0.0 | 0.00 | 0.00 | 0.00 | 99 | 1018.4 |
| 20260905124654 | 21 | 60 | 0.0 | 0.0 | 0.00 | 0.00 | 0.00 | 99 | 1018.4 |
| 20260905124150 | 21 | 59 | 0.0 | 0.0 | 0.00 | 0.00 | 0.00 | 99 | 1018.4 |
| 20260905123644 | 21 | 59 | 0.0 | 0.0 | 0.00 | 0.00 | 0.00 | 99 | 1018.1 |
| 20260905123142 | 21 | 45 | 1.6 | 4.8 | 0.00 | 0.00 | 0.00 | 99 | 1017.9 |
| 20260905122641 | 21 | 60 | 0.0 | 0.0 | 0.00 | 0.00 | 0.00 | 99 | 1018.0 |